Time,TemperatureF,DewpointF,PressureIn,WindDirection,WindDirectionDegrees,WindSpeedMPH,WindSpeedGustMPH,Humidity,HourlyPrecipIn,Conditions,Clouds,dailyrainin,SoftwareType,DateUTC
2013-05-25 00:00:00,57.2,30.5,30.29,NNE,25,0.0,1.0,36,0.00,,---,0.00,VWS V14.01,2013-05-25 04:00:00,
2013-05-25 00:01:00,57.2,30.5,30.29,NNE,25,0.0,1.0,36,0.00,,---,0.00,VWS V14.01,2013-05-25 04:01:00,
2013-05-25 00:06:00,56.9,31.6,30.29,NNE,25,1.0,1.0,38,0.00,,---,0.00,VWS V14.01,2013-05-25 04:06:00,
2013-05-25 00:11:00,56.6,31.3,30.29,NNE,25,2.0,2.0,38,0.00,,---,0.00,VWS V14.01,2013-05-25 04:11:00,
2013-05-25 00:16:00,56.5,30.6,30.29,NNE,25,0.0,2.0,37,0.00,,---,0.00,VWS V14.01,2013-05-25 04:16:00,
2013-05-25 00:21:00,56.5,31.2,30.29,NNE,25,0.0,2.0,38,0.00,,---,0.00,VWS V14.01,2013-05-25 04:21:00,
2013-05-25 00:26:00,56.3,32.3,30.30,NNE,25,0.0,2.0,40,0.00,,---,0.00,VWS V14.01,2013-05-25 04:26:00,
2013-05-25 00:31:00,56.0,33.2,30.30,NNE,25,1.0,2.0,42,0.00,,---,0.00,VWS V14.01,2013-05-25 04:31:00,
2013-05-25 00:36:00,55.9,33.2,30.30,NNE,25,1.0,1.0,42,0.00,,---,0.00,VWS V14.01,2013-05-25 04:36:00,
2013-05-25 00:41:00,55.7,33.0,30.30,NNE,25,1.0,1.0,42,0.00,,---,0.00,VWS V14.01,2013-05-25 04:41:00,
2013-05-25 00:46:00,55.7,33.0,30.30,NNE,25,1.0,1.0,42,0.00,,---,0.00,VWS V14.01,2013-05-25 04:46:00,
2013-05-25 00:51:00,55.7,33.0,30.30,NNE,25,2.0,2.0,42,0.00,,---,0.00,VWS V14.01,2013-05-25 04:51:00,
2013-05-25 00:56:00,55.7,33.0,30.30,NNE,25,1.0,2.0,42,0.00,,---,0.00,VWS V14.01,2013-05-25 04:56:00,
2013-05-25 01:17:00,56.0,32.7,30.29,NNE,24,4.0,4.0,41,0.00,,---,0.00,VWS V14.01,2013-05-25 05:17:00,
2013-05-25 01:22:00,56.2,31.6,30.29,NNE,22,2.0,4.0,39,0.00,,---,0.00,VWS V14.01,2013-05-25 05:22:00,
2013-05-25 01:27:00,56.3,31.7,30.29,NNE,22,2.0,4.0,39,0.00,,---,0.00,VWS V14.01,2013-05-25 05:27:00,
2013-05-25 01:32:00,56.2,31.6,30.29,NNE,22,0.0,4.0,39,0.00,,---,0.00,VWS V14.01,2013-05-25 05:32:00,
2013-05-25 01:37:00,56.0,30.8,30.29,NNE,22,0.0,4.0,38,0.00,,---,0.00,VWS V14.01,2013-05-25 05:37:00,
2013-05-25 01:42:00,55.9,31.3,30.29,NNE,22,2.0,4.0,39,0.00,,---,0.00,VWS V14.01,2013-05-25 05:42:00,
2013-05-25 01:47:00,55.9,31.3,30.29,NNE,22,0.0,4.0,39,0.00,,---,0.00,VWS V14.01,2013-05-25 05:47:00,
2013-05-25 01:53:00,55.6,32.9,30.29,NNE,22,1.0,4.0,42,0.00,,---,0.00,VWS V14.01,2013-05-25 05:53:00,
2013-05-25 01:58:00,55.1,32.4,30.29,NNE,22,1.0,4.0,42,0.00,,---,0.00,VWS V14.01,2013-05-25 05:58:00,
2013-05-25 02:03:00,54.7,32.1,30.30,NNE,22,0.0,4.0,42,0.00,,---,0.00,VWS V14.01,2013-05-25 06:03:00,
2013-05-25 02:08:00,54.7,32.1,30.30,NNE,21,2.0,4.0,42,0.00,,---,0.00,VWS V14.01,2013-05-25 06:08:00,
2013-05-25 02:13:00,54.7,33.2,30.30,NNE,17,3.0,4.0,44,0.00,,---,0.00,VWS V14.01,2013-05-25 06:13:00,
2013-05-25 02:18:00,54.7,33.2,30.30,NNE,15,3.0,4.0,44,0.00,,---,0.00,VWS V14.01,2013-05-25 06:18:00,
2013-05-25 02:23:00,54.5,34.2,30.30,NNW,346,2.0,4.0,46,0.00,,---,0.00,VWS V14.01,2013-05-25 06:23:00,
2013-05-25 02:28:00,54.2,34.4,30.30,NNW,343,2.0,4.0,47,0.00,,---,0.00,VWS V14.01,2013-05-25 06:28:00,
2013-05-25 02:30:00,53.8,34.6,30.30,North,351,5.0,5.0,48,0.00,,---,0.00,VWS V14.01,2013-05-25 06:30:00,
2013-05-25 02:33:00,53.8,34.6,30.30,North,351,5.0,5.0,48,0.00,,---,0.00,VWS V14.01,2013-05-25 06:33:00,
2013-05-25 02:38:00,53.6,35.4,30.29,NNW,344,3.0,5.0,50,0.00,,---,0.00,VWS V14.01,2013-05-25 06:38:00,
2013-05-25 02:43:00,53.3,36.1,30.30,NNW,339,4.0,5.0,52,0.00,,---,0.00,VWS V14.01,2013-05-25 06:43:00,
2013-05-25 02:48:00,53.1,36.4,30.30,NNW,340,3.0,5.0,53,0.00,,---,0.00,VWS V14.01,2013-05-25 06:48:00,
2013-05-25 02:53:00,52.8,36.6,30.30,NNW,340,2.0,5.0,54,0.00,,---,0.00,VWS V14.01,2013-05-25 06:53:00,
2013-05-25 02:58:00,52.5,37.7,30.30,North,355,6.0,6.0,57,0.00,,---,0.00,VWS V14.01,2013-05-25 06:58:00,
2013-05-25 03:04:00,52.5,37.7,30.30,North,355,6.0,6.0,57,0.00,,---,0.00,VWS V14.01,2013-05-25 07:04:00,
2013-05-25 03:11:00,52.2,38.8,30.30,North,355,6.0,6.0,60,0.00,,---,0.00,VWS V14.01,2013-05-25 07:11:00,
2013-05-25 03:16:00,51.3,40.0,30.30,NNW,348,3.0,6.0,65,0.00,,---,0.00,VWS V14.01,2013-05-25 07:16:00,
2013-05-25 03:21:00,50.2,39.7,30.29,NW,321,4.0,6.0,67,0.00,,---,0.00,VWS V14.01,2013-05-25 07:21:00,
2013-05-25 03:26:00,49.9,39.8,30.29,North,355,4.0,6.0,68,0.00,,---,0.00,VWS V14.01,2013-05-25 07:26:00,
2013-05-25 03:31:00,49.8,39.3,30.29,NNW,340,3.0,6.0,67,0.00,,---,0.00,VWS V14.01,2013-05-25 07:31:00,
2013-05-25 03:36:00,49.6,39.1,30.28,NNE,17,4.0,6.0,67,0.00,,---,0.00,VWS V14.01,2013-05-25 07:36:00,
2013-05-25 03:41:00,49.5,38.6,30.28,NNE,23,5.0,6.0,66,0.00,,---,0.00,VWS V14.01,2013-05-25 07:41:00,
2013-05-25 03:46:00,49.6,37.9,30.28,North,5,2.0,6.0,64,0.00,,---,0.00,VWS V14.01,2013-05-25 07:46:00,
2013-05-25 03:51:00,50.1,38.0,30.28,NE,46,1.0,6.0,63,0.00,,---,0.00,VWS V14.01,2013-05-25 07:51:00,
2013-05-25 03:56:00,50.2,37.3,30.28,North,355,0.0,6.0,61,0.00,,---,0.00,VWS V14.01,2013-05-25 07:56:00,
2013-05-25 04:01:00,50.7,36.5,30.27,NNE,19,1.0,6.0,58,0.00,,---,0.00,VWS V14.01,2013-05-25 08:01:00,
2013-05-25 04:06:00,51.3,36.2,30.27,NE,47,3.0,6.0,56,0.00,,---,0.00,VWS V14.01,2013-05-25 08:06:00,
2013-05-25 04:11:00,51.6,36.0,30.28,NNW,338,1.0,6.0,55,0.00,,---,0.00,VWS V14.01,2013-05-25 08:11:00,
2013-05-25 04:16:00,51.7,36.1,30.28,NE,42,5.0,6.0,55,0.00,,---,0.00,VWS V14.01,2013-05-25 08:16:00,
2013-05-25 04:21:00,51.7,36.1,30.28,NE,51,0.0,6.0,55,0.00,,---,0.00,VWS V14.01,2013-05-25 08:21:00,
2013-05-25 04:26:00,51.7,36.1,30.28,East,91,6.0,6.0,55,0.00,,---,0.00,VWS V14.01,2013-05-25 08:26:00,
2013-05-25 04:31:00,51.6,36.0,30.27,NE,51,3.0,6.0,55,0.00,,---,0.00,VWS V14.01,2013-05-25 08:31:00,
2013-05-25 04:36:00,51.4,36.2,30.27,NE,46,2.0,6.0,56,0.00,,---,0.00,VWS V14.01,2013-05-25 08:36:00,
2013-05-25 04:41:00,51.4,36.2,30.27,NE,50,2.0,6.0,56,0.00,,---,0.00,VWS V14.01,2013-05-25 08:41:00,
2013-05-25 04:46:00,51.3,36.2,30.27,NNE,30,6.0,6.0,56,0.00,,---,0.00,VWS V14.01,2013-05-25 08:46:00,
2013-05-25 04:51:00,51.1,36.4,30.27,NE,50,5.0,6.0,57,0.00,,---,0.00,VWS V14.01,2013-05-25 08:51:00,
2013-05-25 04:56:00,51.0,36.8,30.27,NE,41,5.0,6.0,58,0.00,,---,0.00,VWS V14.01,2013-05-25 08:56:00,
2013-05-25 05:01:00,50.8,36.6,30.27,ENE,60,1.0,6.0,58,0.00,,---,0.00,VWS V14.01,2013-05-25 09:01:00,
2013-05-25 05:06:00,50.5,36.7,30.28,NE,51,0.0,6.0,59,0.00,,---,0.00,VWS V14.01,2013-05-25 09:06:00,
2013-05-25 05:11:00,50.4,36.6,30.28,ENE,69,2.0,6.0,59,0.00,,---,0.00,VWS V14.01,2013-05-25 09:11:00,
2013-05-25 05:16:00,50.2,36.9,30.28,ENE,59,4.0,6.0,60,0.00,,---,0.00,VWS V14.01,2013-05-25 09:16:00,
2013-05-25 05:21:00,50.1,36.8,30.27,ENE,69,8.0,8.0,60,0.00,,---,0.00,VWS V14.01,2013-05-25 09:21:00,
2013-05-25 05:26:00,49.9,37.0,30.27,ENE,59,3.0,8.0,61,0.00,,---,0.00,VWS V14.01,2013-05-25 09:26:00,
2013-05-25 05:30:00,49.6,37.1,30.27,ENE,63,1.0,8.0,62,0.00,,---,0.00,VWS V14.01,2013-05-25 09:30:00,
2013-05-25 05:31:00,49.6,37.1,30.27,ENE,63,1.0,8.0,62,0.00,,---,0.00,VWS V14.01,2013-05-25 09:31:00,
2013-05-25 05:36:00,49.5,37.4,30.28,ENE,57,0.0,1.0,63,0.00,,---,0.00,VWS V14.01,2013-05-25 09:36:00,
2013-05-25 05:41:00,49.4,37.3,30.28,ENE,60,2.0,2.0,63,0.00,,---,0.00,VWS V14.01,2013-05-25 09:41:00,
2013-05-25 05:46:00,49.1,37.5,30.28,ENE,60,1.0,2.0,64,0.00,,---,0.00,VWS V14.01,2013-05-25 09:46:00,
2013-05-25 05:51:00,48.9,37.3,30.28,ENE,76,0.0,2.0,64,0.00,,---,0.00,VWS V14.01,2013-05-25 09:51:00,
2013-05-25 05:56:00,48.8,37.2,30.27,ENE,68,3.0,3.0,64,0.00,,---,0.00,VWS V14.01,2013-05-25 09:56:00,
2013-05-25 06:01:00,48.8,37.2,30.28,ENE,67,1.0,3.0,64,0.00,,---,0.00,VWS V14.01,2013-05-25 10:01:00,
2013-05-25 06:06:00,48.6,37.4,30.28,ENE,63,4.0,4.0,65,0.00,,---,0.00,VWS V14.01,2013-05-25 10:06:00,
2013-05-25 06:11:00,48.2,37.8,30.28,NE,55,1.0,4.0,67,0.00,,---,0.00,VWS V14.01,2013-05-25 10:11:00,
2013-05-25 06:16:00,48.2,37.8,30.28,ENE,61,1.0,4.0,67,0.00,,---,0.00,VWS V14.01,2013-05-25 10:16:00,
2013-05-25 06:21:00,48.0,37.6,30.29,ENE,60,0.0,4.0,67,0.00,,---,0.00,VWS V14.01,2013-05-25 10:21:00,
2013-05-25 06:26:00,47.9,37.5,30.29,ENE,58,1.0,4.0,67,0.00,,---,0.00,VWS V14.01,2013-05-25 10:26:00,
2013-05-25 06:31:00,47.7,37.7,30.29,ENE,58,1.0,4.0,68,0.00,,---,0.00,VWS V14.01,2013-05-25 10:31:00,
2013-05-25 06:37:00,47.6,37.6,30.30,ENE,58,1.0,4.0,68,0.00,,---,0.00,VWS V14.01,2013-05-25 10:37:00,
2013-05-25 06:42:00,47.4,37.8,30.30,ENE,58,1.0,4.0,69,0.00,,---,0.00,VWS V14.01,2013-05-25 10:42:00,
2013-05-25 06:47:00,47.3,38.0,30.30,ENE,58,2.0,4.0,70,0.00,,---,0.00,VWS V14.01,2013-05-25 10:47:00,
2013-05-25 06:52:00,47.3,38.4,30.30,ENE,58,0.0,4.0,71,0.00,,---,0.00,VWS V14.01,2013-05-25 10:52:00,
2013-05-25 06:57:00,47.3,38.4,30.30,ENE,58,1.0,4.0,71,0.00,,---,0.00,VWS V14.01,2013-05-25 10:57:00,
2013-05-25 07:02:00,47.4,38.8,30.30,ENE,58,0.0,4.0,72,0.00,,---,0.00,VWS V14.01,2013-05-25 11:02:00,
2013-05-25 07:07:00,47.4,38.8,30.30,ENE,58,2.0,4.0,72,0.00,,---,0.00,VWS V14.01,2013-05-25 11:07:00,
2013-05-25 07:12:00,47.6,39.4,30.30,ENE,61,3.0,4.0,73,0.00,,---,0.00,VWS V14.01,2013-05-25 11:12:00,
2013-05-25 07:17:00,47.9,39.0,30.30,ENE,65,2.0,4.0,71,0.00,,---,0.00,VWS V14.01,2013-05-25 11:17:00,
2013-05-25 07:22:00,48.2,38.9,30.30,ENE,71,3.0,4.0,70,0.00,,---,0.00,VWS V14.01,2013-05-25 11:22:00,
2013-05-25 07:27:00,48.6,39.3,30.30,ENE,71,3.0,4.0,70,0.00,,---,0.00,VWS V14.01,2013-05-25 11:27:00,
2013-05-25 07:30:00,48.9,39.2,30.30,East,83,2.0,4.0,69,0.00,,---,0.00,VWS V14.01,2013-05-25 11:30:00,
2013-05-25 07:32:00,48.9,39.2,30.30,East,83,2.0,4.0,69,0.00,,---,0.00,VWS V14.01,2013-05-25 11:32:00,
2013-05-25 07:37:00,49.1,39.4,30.30,ENE,65,3.0,3.0,69,0.00,,---,0.00,VWS V14.01,2013-05-25 11:37:00,
2013-05-25 07:42:00,49.2,39.5,30.30,ENE,77,2.0,3.0,69,0.00,,---,0.00,VWS V14.01,2013-05-25 11:42:00,
2013-05-25 07:47:00,49.5,39.8,30.30,East,94,5.0,5.0,69,0.00,,---,0.00,VWS V14.01,2013-05-25 11:47:00,
2013-05-25 07:52:00,49.6,39.5,30.31,ENE,78,0.0,5.0,68,0.00,,---,0.00,VWS V14.01,2013-05-25 11:52:00,
2013-05-25 07:57:00,49.8,39.3,30.30,East,80,5.0,5.0,67,0.00,,---,0.00,VWS V14.01,2013-05-25 11:57:00,
2013-05-25 08:00:00,49.9,39.4,30.32,ENE,67,0.0,5.0,67,0.00,,---,0.00,VWS V14.01,2013-05-25 12:00:00,
2013-05-25 08:02:00,49.9,39.4,30.32,ENE,67,0.0,5.0,67,0.00,,---,0.00,VWS V14.01,2013-05-25 12:02:00,
2013-05-25 08:07:00,49.9,39.0,30.31,ENE,78,3.0,3.0,66,0.00,,---,0.00,VWS V14.01,2013-05-25 12:07:00,
2013-05-25 08:12:00,50.1,39.2,30.32,ENE,68,2.0,3.0,66,0.00,,---,0.00,VWS V14.01,2013-05-25 12:12:00,
2013-05-25 08:17:00,50.2,39.3,30.33,ESE,103,0.0,3.0,66,0.00,,---,0.00,VWS V14.01,2013-05-25 12:17:00,
2013-05-25 08:22:00,50.4,39.5,30.33,ESE,103,0.0,3.0,66,0.00,,---,0.00,VWS V14.01,2013-05-25 12:22:00,
2013-05-25 08:27:00,50.5,39.2,30.33,ESE,103,0.0,3.0,65,0.00,,---,0.00,VWS V14.01,2013-05-25 12:27:00,
2013-05-25 08:32:00,50.7,39.4,30.33,ESE,103,0.0,3.0,65,0.00,,---,0.00,VWS V14.01,2013-05-25 12:32:00,
2013-05-25 08:37:00,51.0,39.3,30.33,ESE,103,0.0,3.0,64,0.00,,---,0.00,VWS V14.01,2013-05-25 12:37:00,
2013-05-25 08:42:00,51.3,39.5,30.33,ESE,103,1.0,3.0,64,0.00,,---,0.00,VWS V14.01,2013-05-25 12:42:00,
2013-05-25 08:47:00,51.4,39.2,30.33,ESE,103,0.0,3.0,63,0.00,,---,0.00,VWS V14.01,2013-05-25 12:47:00,
2013-05-25 08:52:00,51.6,39.4,30.33,ESE,103,1.0,3.0,63,0.00,,---,0.00,VWS V14.01,2013-05-25 12:52:00,
2013-05-25 08:57:00,51.6,39.0,30.33,ESE,103,2.0,3.0,62,0.00,,---,0.00,VWS V14.01,2013-05-25 12:57:00,
2013-05-25 09:02:00,51.7,39.1,30.33,ESE,104,0.0,3.0,62,0.00,,---,0.00,VWS V14.01,2013-05-25 13:02:00,
2013-05-25 09:07:00,51.9,40.1,30.33,ESE,104,0.0,3.0,64,0.00,,---,0.00,VWS V14.01,2013-05-25 13:07:00,
2013-05-25 09:12:00,52.5,39.9,30.35,ESE,104,0.0,3.0,62,0.00,,---,0.00,VWS V14.01,2013-05-25 13:12:00,
2013-05-25 09:17:00,52.8,40.2,30.35,ESE,104,0.0,3.0,62,0.00,,---,0.00,VWS V14.01,2013-05-25 13:17:00,
2013-05-25 09:22:00,53.1,39.6,30.35,ESE,104,1.0,3.0,60,0.00,,---,0.00,VWS V14.01,2013-05-25 13:22:00,
2013-05-25 09:27:00,53.5,40.4,30.35,ESE,104,0.0,3.0,61,0.00,,---,0.00,VWS V14.01,2013-05-25 13:27:00,
2013-05-25 09:32:00,53.8,40.7,30.34,ESE,104,2.0,3.0,61,0.00,,---,0.00,VWS V14.01,2013-05-25 13:32:00,
2013-05-25 09:37:00,54.1,40.1,30.35,East,101,1.0,3.0,59,0.00,,---,0.00,VWS V14.01,2013-05-25 13:37:00,
2013-05-25 09:42:00,54.4,40.4,30.35,East,85,0.0,3.0,59,0.00,,---,0.00,VWS V14.01,2013-05-25 13:42:00,
2013-05-25 09:47:00,54.8,41.2,30.35,ESE,102,0.0,3.0,60,0.00,,---,0.00,VWS V14.01,2013-05-25 13:47:00,
2013-05-25 09:52:00,55.3,40.8,30.35,ESE,104,2.0,3.0,58,0.00,,---,0.00,VWS V14.01,2013-05-25 13:52:00,
2013-05-25 09:58:00,55.4,40.0,30.35,ESE,110,0.0,3.0,56,0.00,,---,0.00,VWS V14.01,2013-05-25 13:58:00,
2013-05-25 10:00:00,55.6,40.2,30.35,ESE,109,1.0,3.0,56,0.00,,---,0.00,VWS V14.01,2013-05-25 14:00:00,
2013-05-25 10:03:00,55.6,40.2,30.35,ESE,109,1.0,3.0,56,0.00,,---,0.00,VWS V14.01,2013-05-25 14:03:00,
2013-05-25 10:08:00,55.6,40.2,30.36,ESE,111,1.0,1.0,56,0.00,,---,0.00,VWS V14.01,2013-05-25 14:08:00,
2013-05-25 10:13:00,55.9,40.5,30.36,ESE,111,0.0,1.0,56,0.00,,---,0.00,VWS V14.01,2013-05-25 14:13:00,
2013-05-25 10:18:00,56.2,42.1,30.35,ESE,111,0.0,1.0,59,0.00,,---,0.00,VWS V14.01,2013-05-25 14:18:00,
2013-05-25 10:23:00,56.3,40.4,30.36,ESE,113,0.0,1.0,55,0.00,,---,0.00,VWS V14.01,2013-05-25 14:23:00,
2013-05-25 10:28:00,56.5,41.0,30.35,ESE,115,0.0,1.0,56,0.00,,---,0.00,VWS V14.01,2013-05-25 14:28:00,
2013-05-25 10:30:00,56.5,41.0,30.34,SSE,158,1.0,1.0,56,0.00,,---,0.00,VWS V14.01,2013-05-25 14:30:00,
2013-05-25 10:33:00,56.5,41.0,30.34,SSE,158,1.0,1.0,56,0.00,,---,0.00,VWS V14.01,2013-05-25 14:33:00,
2013-05-25 10:38:00,56.6,40.6,30.33,SE,128,7.0,7.0,55,0.00,,---,0.00,VWS V14.01,2013-05-25 14:38:00,
2013-05-25 10:43:00,56.6,40.6,30.33,SE,144,5.0,7.0,55,0.00,,---,0.00,VWS V14.01,2013-05-25 14:43:00,
2013-05-25 10:48:00,56.7,40.7,30.34,SE,125,3.0,7.0,55,0.00,,---,0.00,VWS V14.01,2013-05-25 14:48:00,
2013-05-25 10:53:00,57.0,41.5,30.35,SE,129,1.0,7.0,56,0.00,,---,0.00,VWS V14.01,2013-05-25 14:53:00,
2013-05-25 10:58:00,57.6,41.6,30.35,South,191,0.0,7.0,55,0.00,,---,0.00,VWS V14.01,2013-05-25 14:58:00,
2013-05-25 11:04:00,58.3,42.2,30.35,SSW,197,0.0,0.0,55,0.00,,---,0.00,VWS V14.01,2013-05-25 15:04:00,
2013-05-25 11:09:00,58.6,41.5,30.35,West,259,2.0,6.0,53,0.00,,---,0.00,VWS V14.01,2013-05-25 15:09:00,
2013-05-25 11:14:00,58.9,41.8,30.36,SW,223,5.0,6.0,53,0.00,,---,0.00,VWS V14.01,2013-05-25 15:14:00,
2013-05-25 11:19:00,58.9,41.8,30.36,West,263,2.0,7.0,53,0.00,,---,0.00,VWS V14.01,2013-05-25 15:19:00,
2013-05-25 11:24:00,59.0,40.4,30.35,SSW,208,0.0,7.0,50,0.00,,---,0.00,VWS V14.01,2013-05-25 15:24:00,
2013-05-25 11:29:00,59.3,40.7,30.34,SSW,197,2.0,7.0,50,0.00,,---,0.00,VWS V14.01,2013-05-25 15:29:00,
2013-05-25 11:34:00,59.6,39.9,30.34,SSW,210,2.0,4.0,48,0.00,,---,0.00,VWS V14.01,2013-05-25 15:34:00,
2013-05-25 11:39:00,60.1,39.3,30.33,SSW,198,0.0,4.0,46,0.00,,---,0.00,VWS V14.01,2013-05-25 15:39:00,
2013-05-25 11:44:00,60.9,38.9,30.33,South,174,0.0,4.0,44,0.00,,---,0.00,VWS V14.01,2013-05-25 15:44:00,
2013-05-25 11:49:00,61.3,38.6,30.33,WSW,238,3.0,6.0,43,0.00,,---,0.00,VWS V14.01,2013-05-25 15:49:00,
2013-05-25 11:54:00,61.0,35.2,30.33,SW,234,0.0,7.0,38,0.00,,---,0.00,VWS V14.01,2013-05-25 15:54:00,
2013-05-25 11:59:00,61.3,36.8,30.33,SW,234,0.0,7.0,40,0.00,,---,0.00,VWS V14.01,2013-05-25 15:59:00,
2013-05-25 12:04:00,61.6,38.9,30.33,SW,221,2.0,4.0,43,0.00,,---,0.00,VWS V14.01,2013-05-25 16:04:00,
2013-05-25 12:09:00,62.0,37.4,30.33,SW,223,2.0,4.0,40,0.00,,---,0.00,VWS V14.01,2013-05-25 16:09:00,
2013-05-25 12:14:00,62.4,36.5,30.33,WSW,254,0.0,4.0,38,0.00,,---,0.00,VWS V14.01,2013-05-25 16:14:00,
2013-05-25 12:19:00,62.7,36.8,30.32,WSW,254,0.0,4.0,38,0.00,,---,0.00,VWS V14.01,2013-05-25 16:19:00,
2013-05-25 12:24:00,63.4,36.0,30.32,SE,128,5.0,7.0,36,0.00,,---,0.00,VWS V14.01,2013-05-25 16:24:00,
2013-05-25 12:29:00,63.4,34.6,30.32,SSE,148,1.0,7.0,34,0.00,,---,0.00,VWS V14.01,2013-05-25 16:29:00,
2013-05-25 12:34:00,63.9,34.3,30.32,SSE,157,1.0,2.0,33,0.00,,---,0.00,VWS V14.01,2013-05-25 16:34:00,
2013-05-25 12:39:00,64.7,33.4,30.32,West,271,1.0,3.0,31,0.00,,---,0.00,VWS V14.01,2013-05-25 16:39:00,
2013-05-25 12:44:00,64.8,35.0,30.32,West,281,1.0,4.0,33,0.00,,---,0.00,VWS V14.01,2013-05-25 16:44:00,
2013-05-25 12:49:00,65.0,32.8,30.32,ENE,75,0.0,4.0,30,0.00,,---,0.00,VWS V14.01,2013-05-25 16:49:00,
2013-05-25 12:54:00,65.5,35.7,30.31,ENE,75,0.0,4.0,33,0.00,,---,0.00,VWS V14.01,2013-05-25 16:54:00,
2013-05-25 12:59:00,66.1,33.8,30.31,ENE,58,2.0,4.0,30,0.00,,---,0.00,VWS V14.01,2013-05-25 16:59:00,
2013-05-25 13:04:00,66.8,32.7,30.31,East,90,0.0,4.0,28,0.00,,---,0.00,VWS V14.01,2013-05-25 17:04:00,
2013-05-25 13:09:00,67.3,34.0,30.31,SE,130,2.0,4.0,29,0.00,,---,0.00,VWS V14.01,2013-05-25 17:09:00,
2013-05-25 13:14:00,67.4,32.3,30.31,WSW,240,3.0,4.0,27,0.00,,---,0.00,VWS V14.01,2013-05-25 17:14:00,
2013-05-25 13:19:00,66.4,32.3,30.31,WSW,243,5.0,7.0,28,0.00,,---,0.00,VWS V14.01,2013-05-25 17:19:00,
2013-05-25 13:24:00,65.5,35.7,30.31,West,264,3.0,7.0,33,0.00,,---,0.00,VWS V14.01,2013-05-25 17:24:00,
2013-05-25 13:29:00,65.2,33.0,30.31,WNW,297,3.0,7.0,30,0.00,,---,0.00,VWS V14.01,2013-05-25 17:29:00,
2013-05-25 13:34:00,65.6,31.6,30.31,NW,306,4.0,5.0,28,0.00,,---,0.00,VWS V14.01,2013-05-25 17:34:00,
2013-05-25 13:39:00,66.3,31.4,30.31,NW,305,0.0,5.0,27,0.00,,---,0.00,VWS V14.01,2013-05-25 17:39:00,
2013-05-25 13:44:00,66.1,30.2,30.31,WNW,294,0.0,6.0,26,0.00,,---,0.00,VWS V14.01,2013-05-25 17:44:00,
2013-05-25 13:49:00,65.8,29.0,30.32,WNW,298,0.0,6.0,25,0.00,,---,0.00,VWS V14.01,2013-05-25 17:49:00,
2013-05-25 13:54:00,66.0,31.1,30.31,WNW,284,2.0,6.0,27,0.00,,---,0.00,VWS V14.01,2013-05-25 17:54:00,
2013-05-25 13:59:00,65.6,34.2,30.32,West,275,2.0,6.0,31,0.00,,---,0.00,VWS V14.01,2013-05-25 17:59:00,
2013-05-25 14:04:00,65.0,32.8,30.32,West,274,1.0,5.0,30,0.00,,---,0.00,VWS V14.01,2013-05-25 18:04:00,
2013-05-25 14:09:00,64.2,33.0,30.32,WSW,252,1.0,7.0,31,0.00,,---,0.00,VWS V14.01,2013-05-25 18:09:00,
2013-05-25 14:14:00,63.9,31.9,30.32,West,267,3.0,7.0,30,0.00,,---,0.00,VWS V14.01,2013-05-25 18:14:00,
2013-05-25 14:19:00,63.7,34.8,30.31,WSW,250,6.0,10.0,34,0.00,,---,0.00,VWS V14.01,2013-05-25 18:19:00,
2013-05-25 14:24:00,63.4,33.0,30.31,West,261,6.0,10.0,32,0.00,,---,0.00,VWS V14.01,2013-05-25 18:24:00,
2013-05-25 14:29:00,63.5,33.9,30.31,West,271,3.0,10.0,33,0.00,,---,0.00,VWS V14.01,2013-05-25 18:29:00,
2013-05-25 14:34:00,63.5,32.3,30.31,West,267,7.0,10.0,31,0.00,,---,0.00,VWS V14.01,2013-05-25 18:34:00,
2013-05-25 14:39:00,63.7,34.8,30.31,West,275,4.0,10.0,34,0.00,,---,0.00,VWS V14.01,2013-05-25 18:39:00,
2013-05-25 14:44:00,64.0,35.8,30.31,West,263,5.0,10.0,35,0.00,,---,0.00,VWS V14.01,2013-05-25 18:44:00,
2013-05-25 14:49:00,64.3,33.8,30.31,West,259,6.0,10.0,32,0.00,,---,0.00,VWS V14.01,2013-05-25 18:49:00,
2013-05-25 14:54:00,64.3,37.5,30.31,WSW,254,4.0,10.0,37,0.00,,---,0.00,VWS V14.01,2013-05-25 18:54:00,
2013-05-25 14:59:00,64.3,36.8,30.31,West,280,5.0,11.0,36,0.00,,---,0.00,VWS V14.01,2013-05-25 18:59:00,
2013-05-25 15:04:00,64.3,37.5,30.31,West,267,4.0,10.0,37,0.00,,---,0.00,VWS V14.01,2013-05-25 19:04:00,
2013-05-25 15:09:00,64.5,36.3,30.30,West,267,6.0,10.0,35,0.00,,---,0.00,VWS V14.01,2013-05-25 19:09:00,
2013-05-25 15:14:00,64.7,37.2,30.30,West,276,7.0,10.0,36,0.00,,---,0.00,VWS V14.01,2013-05-25 19:14:00,
2013-05-25 15:19:00,64.5,37.7,30.30,West,260,8.0,12.0,37,0.00,,---,0.00,VWS V14.01,2013-05-25 19:19:00,
2013-05-25 15:24:00,64.5,37.7,30.30,West,261,8.0,12.0,37,0.00,,---,0.00,VWS V14.01,2013-05-25 19:24:00,
2013-05-25 15:29:00,64.5,37.0,30.30,West,261,7.0,12.0,36,0.00,,---,0.00,VWS V14.01,2013-05-25 19:29:00,
2013-05-25 15:34:00,64.7,35.0,30.30,WSW,242,6.0,11.0,33,0.00,,---,0.00,VWS V14.01,2013-05-25 19:34:00,
2013-05-25 15:39:00,64.7,35.0,30.29,West,259,8.0,11.0,33,0.00,,---,0.00,VWS V14.01,2013-05-25 19:39:00,
2013-05-25 15:44:00,64.7,36.4,30.29,West,271,1.0,11.0,35,0.00,,---,0.00,VWS V14.01,2013-05-25 19:44:00,
2013-05-25 15:49:00,65.0,35.2,30.28,WNW,291,8.0,11.0,33,0.00,,---,0.00,VWS V14.01,2013-05-25 19:49:00,
2013-05-25 15:54:00,65.0,34.5,30.28,WSW,250,3.0,11.0,32,0.00,,---,0.00,VWS V14.01,2013-05-25 19:54:00,
2013-05-25 15:59:00,65.0,36.7,30.28,NNW,337,1.0,11.0,35,0.00,,---,0.00,VWS V14.01,2013-05-25 19:59:00,
2013-05-25 16:04:00,65.3,38.4,30.27,NW,307,6.0,6.0,37,0.00,,---,0.00,VWS V14.01,2013-05-25 20:04:00,
2013-05-25 16:09:00,65.5,34.1,30.27,NW,316,7.0,7.0,31,0.00,,---,0.00,VWS V14.01,2013-05-25 20:09:00,
2013-05-25 16:14:00,65.5,34.1,30.27,WNW,294,2.0,7.0,31,0.00,,---,0.00,VWS V14.01,2013-05-25 20:14:00,
2013-05-25 16:19:00,65.2,34.6,30.27,NNW,331,0.0,7.0,32,0.00,,---,0.00,VWS V14.01,2013-05-25 20:19:00,
2013-05-25 16:24:00,65.2,36.9,30.27,NW,311,2.0,7.0,35,0.00,,---,0.00,VWS V14.01,2013-05-25 20:24:00,
2013-05-25 16:29:00,65.2,34.6,30.27,WNW,300,2.0,7.0,32,0.00,,---,0.00,VWS V14.01,2013-05-25 20:29:00,
2013-05-25 16:34:00,65.3,33.9,30.26,NW,307,1.0,4.0,31,0.00,,---,0.00,VWS V14.01,2013-05-25 20:34:00,
2013-05-25 16:39:00,65.3,36.2,30.26,WNW,300,0.0,4.0,34,0.00,,---,0.00,VWS V14.01,2013-05-25 20:39:00,
2013-05-25 16:44:00,65.2,36.2,30.26,WNW,300,1.0,4.0,34,0.00,,---,0.00,VWS V14.01,2013-05-25 20:44:00,
2013-05-25 16:49:00,65.0,34.5,30.26,WNW,298,0.0,4.0,32,0.00,,---,0.00,VWS V14.01,2013-05-25 20:49:00,
2013-05-25 16:54:00,64.8,35.0,30.26,WNW,284,0.0,6.0,33,0.00,,---,0.00,VWS V14.01,2013-05-25 20:54:00,
2013-05-25 16:59:00,64.7,35.7,30.26,WNW,288,2.0,6.0,34,0.00,,---,0.00,VWS V14.01,2013-05-25 20:59:00,
2013-05-25 17:04:00,64.3,36.1,30.26,WNW,293,0.0,2.0,35,0.00,,---,0.00,VWS V14.01,2013-05-25 21:04:00,
2013-05-25 17:09:00,64.3,38.2,30.26,WNW,295,4.0,4.0,38,0.00,,---,0.00,VWS V14.01,2013-05-25 21:09:00,
2013-05-25 17:14:00,64.3,37.5,30.26,NW,309,0.0,4.0,37,0.00,,---,0.00,VWS V14.01,2013-05-25 21:14:00,
2013-05-25 17:19:00,64.3,38.2,30.26,WNW,286,0.0,4.0,38,0.00,,---,0.00,VWS V14.01,2013-05-25 21:19:00,
2013-05-25 17:24:00,64.2,38.8,30.26,West,279,4.0,5.0,39,0.00,,---,0.00,VWS V14.01,2013-05-25 21:24:00,
2013-05-25 17:29:00,63.9,39.1,30.26,WSW,256,7.0,8.0,40,0.00,,---,0.00,VWS V14.01,2013-05-25 21:29:00,
2013-05-25 17:34:00,63.2,41.5,30.25,West,277,5.0,9.0,45,0.00,,---,0.00,VWS V14.01,2013-05-25 21:34:00,
2013-05-25 17:39:00,62.6,42.1,30.25,WSW,250,7.0,9.0,47,0.00,,---,0.00,VWS V14.01,2013-05-25 21:39:00,
2013-05-25 17:44:00,62.0,42.6,30.24,WSW,247,3.0,9.0,49,0.00,,---,0.00,VWS V14.01,2013-05-25 21:44:00,
2013-05-25 17:49:00,61.6,43.8,30.24,West,259,4.0,9.0,52,0.00,,---,0.00,VWS V14.01,2013-05-25 21:49:00,
2013-05-25 17:54:00,61.5,42.7,30.24,SW,236,5.0,9.0,50,0.00,,---,0.00,VWS V14.01,2013-05-25 21:54:00,
2013-05-25 17:59:00,61.5,43.7,30.24,WSW,252,6.0,9.0,52,0.00,,---,0.00,VWS V14.01,2013-05-25 21:59:00,
2013-05-25 18:04:00,61.3,44.0,30.24,West,259,6.0,7.0,53,0.00,,---,0.00,VWS V14.01,2013-05-25 22:04:00,
2013-05-25 18:09:00,61.0,42.2,30.24,WSW,247,5.0,11.0,50,0.00,,---,0.00,VWS V14.01,2013-05-25 22:09:00,
2013-05-25 18:14:00,60.7,44.0,30.23,SW,220,7.0,11.0,54,0.00,,---,0.00,VWS V14.01,2013-05-25 22:14:00,
2013-05-25 18:19:00,60.4,43.7,30.23,WSW,246,3.0,11.0,54,0.00,,---,0.00,VWS V14.01,2013-05-25 22:19:00,
2013-05-25 18:24:00,60.2,43.0,30.23,WSW,250,6.0,11.0,53,0.00,,---,0.00,VWS V14.01,2013-05-25 22:24:00,
2013-05-25 18:29:00,60.2,42.5,30.22,WSW,250,3.0,11.0,52,0.00,,---,0.00,VWS V14.01,2013-05-25 22:29:00,
2013-05-25 18:34:00,60.2,42.0,30.21,SW,225,0.0,9.0,51,0.00,,---,0.00,VWS V14.01,2013-05-25 22:34:00,
2013-05-25 18:39:00,60.1,40.9,30.21,WSW,244,2.0,9.0,49,0.00,,---,0.00,VWS V14.01,2013-05-25 22:39:00,
2013-05-25 18:44:00,59.9,41.2,30.20,SW,219,0.0,9.0,50,0.00,,---,0.00,VWS V14.01,2013-05-25 22:44:00,
2013-05-25 18:49:00,59.8,40.6,30.19,SW,234,2.0,9.0,49,0.00,,---,0.00,VWS V14.01,2013-05-25 22:49:00,
2013-05-25 18:54:00,59.8,41.7,30.18,SW,234,0.0,9.0,51,0.00,,---,0.00,VWS V14.01,2013-05-25 22:54:00,
2013-05-25 18:59:00,59.8,42.2,30.19,WSW,237,4.0,9.0,52,0.00,,---,0.00,VWS V14.01,2013-05-25 22:59:00,
2013-05-25 19:04:00,59.9,42.2,30.20,WSW,243,3.0,4.0,52,0.00,,---,0.00,VWS V14.01,2013-05-25 23:04:00,
2013-05-25 19:09:00,59.9,42.7,30.20,WNW,284,3.0,5.0,53,0.00,,---,0.00,VWS V14.01,2013-05-25 23:09:00,
2013-05-25 19:14:00,59.8,42.2,30.20,West,263,2.0,5.0,52,0.00,,---,0.00,VWS V14.01,2013-05-25 23:14:00,
2013-05-25 19:19:00,59.8,42.2,30.20,West,260,4.0,5.0,52,0.00,,---,0.00,VWS V14.01,2013-05-25 23:19:00,
2013-05-25 19:24:00,59.8,42.7,30.21,West,268,0.0,5.0,53,0.00,,---,0.00,VWS V14.01,2013-05-25 23:24:00,
2013-05-25 19:29:00,59.9,42.7,30.21,WNW,293,0.0,5.0,53,0.00,,---,0.00,VWS V14.01,2013-05-25 23:29:00,
2013-05-25 19:34:00,59.9,42.7,30.21,WNW,292,2.0,3.0,53,0.00,,---,0.00,VWS V14.01,2013-05-25 23:34:00,
2013-05-25 19:39:00,59.9,42.7,30.22,West,271,3.0,6.0,53,0.00,,---,0.00,VWS V14.01,2013-05-25 23:39:00,
2013-05-25 19:44:00,59.8,43.1,30.22,West,267,1.0,6.0,54,0.00,,---,0.00,VWS V14.01,2013-05-25 23:44:00,
2013-05-25 19:49:00,59.6,42.5,30.22,WNW,285,0.0,6.0,53,0.00,,---,0.00,VWS V14.01,2013-05-25 23:49:00,
2013-05-25 19:54:00,59.6,42.5,30.22,WNW,296,0.0,6.0,53,0.00,,---,0.00,VWS V14.01,2013-05-25 23:54:00,
2013-05-25 19:59:00,59.6,42.0,30.23,WNW,292,0.0,6.0,52,0.00,,---,0.00,VWS V14.01,2013-05-25 23:59:00,
2013-05-25 20:04:00,59.5,42.4,30.22,WNW,300,0.0,4.0,53,0.00,,---,0.00,VWS V14.01,2013-05-26 00:04:00,
2013-05-25 20:09:00,59.5,42.4,30.22,WNW,292,0.0,4.0,53,0.00,,---,0.00,VWS V14.01,2013-05-26 00:09:00,
2013-05-25 20:14:00,59.3,42.2,30.22,NW,314,3.0,5.0,53,0.00,,---,0.00,VWS V14.01,2013-05-26 00:14:00,
2013-05-25 20:19:00,59.3,42.2,30.22,NNW,332,1.0,5.0,53,0.00,,---,0.00,VWS V14.01,2013-05-26 00:19:00,
2013-05-25 20:24:00,59.2,42.6,30.22,NW,322,1.0,5.0,54,0.00,,---,0.00,VWS V14.01,2013-05-26 00:24:00,
2013-05-25 20:29:00,59.2,42.6,30.23,NNW,333,1.0,5.0,54,0.00,,---,0.00,VWS V14.01,2013-05-26 00:29:00,
2013-05-25 20:34:00,59.0,42.4,30.23,NW,317,0.0,4.0,54,0.00,,---,0.00,VWS V14.01,2013-05-26 00:34:00,
2013-05-25 20:39:00,59.0,42.4,30.23,NW,325,2.0,5.0,54,0.00,,---,0.00,VWS V14.01,2013-05-26 00:39:00,
2013-05-25 20:44:00,58.9,42.3,30.23,NW,323,3.0,5.0,54,0.00,,---,0.00,VWS V14.01,2013-05-26 00:44:00,
2013-05-25 20:49:00,58.9,42.8,30.23,NNW,337,3.0,5.0,55,0.00,,---,0.00,VWS V14.01,2013-05-26 00:49:00,
2013-05-25 20:54:00,58.7,42.1,30.24,NNW,336,4.0,5.0,54,0.00,,---,0.00,VWS V14.01,2013-05-26 00:54:00,
2013-05-25 20:59:00,58.6,42.5,30.24,NNW,327,2.0,6.0,55,0.00,,---,0.00,VWS V14.01,2013-05-26 00:59:00,
2013-05-25 21:04:00,58.4,42.8,30.24,North,351,4.0,7.0,56,0.00,,---,0.00,VWS V14.01,2013-05-26 01:04:00,
2013-05-25 21:09:00,58.3,42.2,30.25,NNW,338,1.0,7.0,55,0.00,,---,0.00,VWS V14.01,2013-05-26 01:09:00,
2013-05-25 21:14:00,58.3,42.7,30.25,NW,311,4.0,7.0,56,0.00,,---,0.00,VWS V14.01,2013-05-26 01:14:00,
2013-05-25 21:19:00,58.0,42.9,30.25,NW,323,3.0,7.0,57,0.00,,---,0.00,VWS V14.01,2013-05-26 01:19:00,
2013-05-25 21:24:00,57.6,43.0,30.25,NW,323,1.0,7.0,58,0.00,,---,0.00,VWS V14.01,2013-05-26 01:24:00,
2013-05-25 21:29:00,57.3,44.0,30.26,NW,314,6.0,8.0,61,0.00,,---,0.00,VWS V14.01,2013-05-26 01:29:00,
2013-05-25 21:34:00,57.0,44.1,30.25,North,349,5.0,6.0,62,0.00,,---,0.00,VWS V14.01,2013-05-26 01:34:00,
2013-05-25 21:39:00,56.7,44.7,30.26,NNW,334,1.0,6.0,64,0.00,,---,0.00,VWS V14.01,2013-05-26 01:39:00,
2013-05-25 21:44:00,56.5,44.5,30.26,NW,320,3.0,6.0,64,0.00,,---,0.00,VWS V14.01,2013-05-26 01:44:00,
2013-05-25 21:49:00,56.3,44.7,30.26,NNW,327,3.0,7.0,65,0.00,,---,0.00,VWS V14.01,2013-05-26 01:49:00,
2013-05-25 21:54:00,56.3,45.1,30.26,NNW,329,3.0,7.0,66,0.00,,---,0.00,VWS V14.01,2013-05-26 01:54:00,
2013-05-25 21:59:00,56.0,44.8,30.26,NNW,336,3.0,7.0,66,0.01,,---,0.01,VWS V14.01,2013-05-26 01:59:00,
2013-05-25 22:04:00,55.9,45.1,30.26,NW,317,2.0,5.0,67,0.01,,---,0.01,VWS V14.01,2013-05-26 02:04:00,
2013-05-25 22:09:00,55.9,45.1,30.26,NW,319,2.0,5.0,67,0.01,,---,0.01,VWS V14.01,2013-05-26 02:09:00,
2013-05-25 22:14:00,55.7,44.9,30.26,NNW,327,3.0,7.0,67,0.01,,---,0.01,VWS V14.01,2013-05-26 02:14:00,
2013-05-25 22:19:00,55.6,45.2,30.26,WNW,294,2.0,7.0,68,0.01,,---,0.01,VWS V14.01,2013-05-26 02:19:00,
2013-05-25 22:24:00,55.4,45.0,30.26,NW,312,1.0,7.0,68,0.01,,---,0.01,VWS V14.01,2013-05-26 02:24:00,
2013-05-25 22:29:00,55.4,45.8,30.26,NW,312,0.0,7.0,70,0.01,,---,0.01,VWS V14.01,2013-05-26 02:29:00,
2013-05-25 22:34:00,55.3,45.7,30.26,NW,315,3.0,3.0,70,0.01,,---,0.01,VWS V14.01,2013-05-26 02:34:00,
2013-05-25 22:39:00,55.3,45.7,30.27,NW,309,1.0,4.0,70,0.01,,---,0.01,VWS V14.01,2013-05-26 02:39:00,
2013-05-25 22:44:00,55.3,45.7,30.27,WNW,294,1.0,4.0,70,0.01,,---,0.01,VWS V14.01,2013-05-26 02:44:00,
2013-05-25 22:49:00,55.4,46.2,30.28,WNW,287,2.0,4.0,71,0.01,,---,0.01,VWS V14.01,2013-05-26 02:49:00,
2013-05-25 22:54:00,55.3,45.7,30.28,WNW,282,0.0,4.0,70,0.01,,---,0.01,VWS V14.01,2013-05-26 02:54:00,
2013-05-25 22:59:00,55.3,46.1,30.28,West,275,3.0,6.0,71,0.01,,---,0.01,VWS V14.01,2013-05-26 02:59:00,
2013-05-25 23:04:00,55.3,46.4,30.28,WNW,286,2.0,6.0,72,0.00,,---,0.01,VWS V14.01,2013-05-26 03:04:00,
2013-05-25 23:09:00,55.1,46.6,30.28,NW,310,3.0,6.0,73,0.00,,---,0.01,VWS V14.01,2013-05-26 03:09:00,
2013-05-25 23:14:00,54.8,46.7,30.28,WNW,287,2.0,9.0,74,0.00,,---,0.01,VWS V14.01,2013-05-26 03:14:00,
2013-05-25 23:19:00,54.7,46.6,30.28,West,276,2.0,9.0,74,0.00,,---,0.01,VWS V14.01,2013-05-26 03:19:00,
2013-05-25 23:24:00,54.4,46.3,30.28,WNW,284,2.0,9.0,74,0.00,,---,0.01,VWS V14.01,2013-05-26 03:24:00,
2013-05-25 23:29:00,54.1,46.0,30.28,West,267,0.0,9.0,74,0.00,,---,0.01,VWS V14.01,2013-05-26 03:29:00,
2013-05-25 23:34:00,53.9,46.2,30.28,WNW,296,3.0,7.0,75,0.00,,---,0.01,VWS V14.01,2013-05-26 03:34:00,
2013-05-25 23:39:00,53.8,46.1,30.28,NNW,338,4.0,7.0,75,0.00,,---,0.01,VWS V14.01,2013-05-26 03:39:00,
2013-05-25 23:44:00,53.5,45.4,30.27,NW,325,1.0,7.0,74,0.00,,---,0.01,VWS V14.01,2013-05-26 03:44:00,
2013-05-25 23:49:00,53.5,45.4,30.27,NW,313,1.0,7.0,74,0.00,,---,0.01,VWS V14.01,2013-05-26 03:49:00,
2013-05-25 23:54:00,53.5,45.4,30.27,WNW,294,5.0,7.0,74,0.00,,---,0.01,VWS V14.01,2013-05-26 03:54:00,
2013-05-25 23:59:00,53.3,45.2,30.27,NW,320,4.0,7.0,74,0.00,,---,0.01,VWS V14.01,2013-05-26 03:59:00,